Regional Weather Roundup
Issued by NWS Goodland, KS

Home | Current Version | Previous Version | Text Only | Print | Product List | Glossary On
Versions: 1 2 3 4 5 6 7 8 9 10 11 12 13 14 15 16 17 18 19 20 21 22 23 24 25 26 27 28 29 30 31 32 33 34 35 36 37 38 39 40 41 42 43 44 45 46 47 48 49 50
000
ASUS43 KGLD 260808
RWRGLD

GOODLAND FORECAST AREA HOURLY WEATHER ROUNDUP
NATIONAL WEATHER SERVICE GOODLAND KS
200 AM MDT FRI MAY 26 2017

...OFFICIAL OBSERVATIONS...

CITY           SKY/WX    TMP DP  RH WIND       PRES   REMARKS
GOODLAND KS    CLOUDY    56  51  84 NW10      29.79F
HILL CITY KS   PTCLDY    60  54  80 NW6       29.69F
IMPERIAL NEB   CLOUDY    57  52  83 NW9       29.81R
MCCOOK NEB     CLOUDY    57  54  89 NW9       29.73R
AKRON CO       CLOUDY    50  47  89 W14       29.89S
BURLINGTON CO  CLOUDY    56  50  80 N9        29.81R
LIMON CO       LGT RAIN  49  46  90 NW18      29.94R
$$

...UNOFFICIAL OBSERVATIONS...

CITY           SKY/WX    TMP DP  RH WIND       PRES   REMARKS
LENORA KS        N/A     56  32  40 MISG        N/A
NORTON KS      CLEAR     54  48  82 SW7       29.68S
SHARON SPRINGS   N/A     53  49  86 CALM        N/A
TRENTON NEB      N/A     56  32  40 NW7         N/A
KIT CARSON CO    N/A     52  47  83 CALM        N/A
YUMA CO        FAIR      50  46  87 NW8       29.86F
$$



USA.gov is the U.S. government's official web portal to all federal, state and local government web resources and services.